FENGYUN 1C DEB

Satellite information

Favourite Embed

Satellite Type and Status

DEBRISIN ORBIT

Key statistics

Satellite FENGYUN 1C DEB at a glance.

Uptime

9617

Days in orbit

Revolutions

≈ 14.9

Per day

Orbit

SSO

Sun Synchronous Orbit

Inclination

99.1

Latest

Satellite identification and parameters

Extended collection of information and parameters for FENGYUN 1C DEB.

Object identification

Identified? True

Debris? True

Object name: FENGYUN 1C DEB

International designator: 1999-025ETT

Object number (NORAD): 38726

Object ID (CCSDS): 38726

Country: PEOPLES REPUBLIC OF CHINA (PRC)

Current information (Y/N): Y

RCS size: SMALL

Orbital parameters

Period: 96.881 minutes

Inclination: 99.1468 deg

SMA: 6987.444 km

Apoapsis: 634.467 km

Periapsis: 584.15 km

RAAN: 258.0452 deg

Eccentricy: 0.00360058

Argument of periapsis: 93.4753 deg

Mean anomaly: 267.0578 deg

Mean motion: 14.86364378 rev/day

Mean motion (dot): 0.00074748 rev/day2

B* drag term: 0.0083002454 1/REarth

Two-line elements (TLE)

Creation date: Sept. 7, 2025, 3:09 a.m.

Reference frame: TEME

Reference center: EARTH

Epoch: Sept. 6, 2025, 6 p.m. UTC

TLE line 0: 0 FENGYUN 1C DEB

TLE line 1: 1 38726U 99025ETT 25249.75019022 .00074748 00000-0 83002-2 0 9994

TLE line 2: 2 38726 99.1468 258.0452 0036006 93.4753 267.0578 14.86364378684077

Live tracking on map

Real-time ground track for satellite FENGYUN 1C DEB.

In-orbit conjunctions

A list of the most updated potential collisions computed for object FENGYUN 1C DEB.

Target Orbit TCA Probability of collision Miss distance Type
CZ-6A DEB LEO 2024-10-17 14:17:12 0.0001357044 146.0 (m) DEBRIS
CZ-6A DEB LEO 2024-09-24 14:15:13 0.0001810979 431.0 (m) DEBRIS

Associated space launch

Chinese polar orbiting meteorological satellite

FENGYUN 1C DEB was lifted into orbit during the mission ‘Long March 4B | Feng Yun 1C’, on board a Long March 4B space rocket.

The launch took place on May 10, 1999, 1:33 a.m. from Launch Complex 7.

For more information about the launch, click the button.

Launch to space Long March 4B | Feng Yun 1C
Long March 4B | Feng Yun 1C

Agency: N/A

Status: Launch Successful

Launch date: May 10, 1999, 1:33 a.m. UTC

Rocket: Long March 4B

Launch pad: Launch Complex 7

Location: Taiyuan Satellite Launch Center, People's Republic of China

...

Latest news about this satellite

There are no fresh news available about this satellite. Check back as we update our databases every day.


Newsletter sign-up

Weekly statistics, charts and insights to help you stay on top of the space industry.